Regional Weather Roundup
Issued by NWS

Home | Current Version | Previous Version | Graphics & Text | Print | Product List | Glossary On
Versions: 1 2 3 4 5 6 7 8 9 10 11 12 13 14 15 16 17 18 19 20 21 22 23 24 25 26 27 28 29 30 31 32 33 34 35 36 37 38 39 40 41 42 43 44 45 46 47 48 49 50
000
ASUS45 KSLC 050110
RWRUT
UTAH REGIONAL WEATHER ROUNDUP
NATIONAL WEATHER SERVICE SALT LAKE CITY UT
700 PM MDT TUE AUG 04 2015

UTZ001>011-023>025-050200-

NORTHERN UTAH

CITY           SKY/WX    TMP DP  RH WIND       PRES   REMARKS
HILL AFB       MOSUNNY   86  51  29 SE3       30.03F
LOGAN          SUNNY     85  51  31 N6        30.02S
OGDEN          SUNNY     88  46  23 E3        30.00F
PROVO AIRPORT  MOSUNNY   90  46  22 VRB5      30.01F
SALT LAKE CITY PTSUNNY   90  47  22 S14       29.97F
VERNAL         MOSUNNY   84  43  23 N8        30.09F
WENDOVER       SUNNY     90  43  19 SW5       29.94F
HEBER CITY     MOSUNNY   82  41  23 W6        30.10F
WEST JORDAN    MOSUNNY   86  48  26 CALM      30.01F

$$

UTZ012>022-026-027-050200-

SOUTHERN/CENTRAL UTAH

CITY           SKY/WX    TMP DP  RH WIND       PRES   REMARKS
BLANDING       SUNNY     82  42  24 E6        30.22F
BRYCE CANYON   MOSUNNY   80  24  12 SW12      30.29F
CEDAR CITY     MOSUNNY   87  21   9 SW15G23   30.10F
DELTA          SUNNY     92  31  11 E6        29.99F
HANKSVILLE     MOSUNNY   91  37  15 SE9       30.01S
MILFORD        SUNNY     92  30  11 SW18G24   30.02F
MOAB/CYNLANDS  SUNNY     91  44  19 SE3       30.00F
PRICE          MOSUNNY   85  41  21 SE10      30.13F
ST GEORGE      PTCLDY    99  34  10 SW12      29.91S HX  93
KANAB          PTSUNNY   90  34  13 SW8       30.11F

$$

REGIONAL REPORTS     COLORADO/ARIZONA

CITY           SKY/WX    TMP DP  RH WIND       PRES   REMARKS
CRAIG, CO      NOT AVBL
GRAND JUNCTION MOSUNNY   89  35  14 NW6       30.04F
RIFLE          MOSUNNY   86  40  19 W9        30.11S
MONTROSE       MOSUNNY   85  42  22 E3        30.15F
CORTEZ         SUNNY     84  42  22 N9        30.16F
PAGE, AZ       MOSUNNY   96  33  11 NE9       29.99F HX  91
GRAND CANYON   SUNNY     85  26  11 W8G20     30.23F
KINGMAN        SUNNY     98  28   8 SW10      29.97F HX  92
FLAGSTAFF      SUNNY     82  27  13 W7        30.28F

$$

REGIONAL REPORTS    NEVADA/IDAHO/WYOMING

CITY           SKY/WX    TMP DP  RH WIND       PRES   REMARKS
LAS VEGAS, NV  PTSUNNY  102  29   7 S8        29.79F HX  95
ELY            PTSUNNY   85  23  10 SW17G23   30.10F
ELKO           PTSUNNY   90  27  10 W8        29.95F
POCATELLO, ID  PTSUNNY   80  40  23 SW35G44   30.04R
BURLEY         CLOUDY    73  52  47 SE13      29.99F
EVANSTON, WY   MOSUNNY   79  36  21 W16G23    30.23R
ROCK SPRINGS   SUNNY     78  37  22 NW16G24   30.18S
KEMMERER       SUNNY     77  32  19 W13       30.25R

$$



USA.gov is the U.S. government's official web portal to all federal, state and local government web resources and services.